Wind_Speed
27 27 27 27 27 27 29 29 31 29 28 27 27 27 27 27 27 27 28 27 28 29 29 30 31 31 32 35 37 39 40 40 41 42 43 43 43 44 45 45 45 45 46 46
28 28 28 27 26 28 29 30 30 29 28 27 27 27 27 28 28 28 28 28 28 28 28 29 30 31 32 33 35 37 39 39 39 41 41 42 43 43 44 44 43 43 44 44
28 29 29 28 26 28 29 29 29 29 28 27 27 27 27 27 27 27 26 26 26 26 27 28 29 29 31 32 33 35 37 38 39 40 40 41 42 42 42 42 41 41 42 43
27 27 28 26 26 27 28 27 28 28 28 27 27 27 27 27 27 26 26 25 25 25 25 26 27 28 30 30 32 33 34 35 35 37 37 38 40 41 41 41 40 40 41 42
27 27 26 24 25 25 26 26 27 27 27 26 26 26 25 26 26 26 26 24 24 24 25 25 26 27 28 29 29 30 32 33 34 35 35 36 38 39 39 39 40 40 41 42
26 27 26 25 25 26 27 27 26 27 27 27 26 26 24 24 25 25 25 25 24 24 26 26 26 27 26 27 28 29 31 32 33 34 34 35 36 38 39 39 39 40 41 42
25 27 26 26 26 27 28 28 28 28 28 28 27 26 25 25 25 25 25 26 26 25 26 26 26 26 26 27 28 30 31 31 30 31 32 33 34 35 37 37 38 39 39 40
26 27 27 26 27 27 27 28 28 28 27 27 27 27 26 26 26 26 26 26 26 26 26 26 27 27 27 27 28 29 30 30 30 31 32 33 33 34 35 35 36 37 37 38
26 26 26 27 28 28 28 28 28 28 27 27 26 26 26 26 27 27 27 28 27 27 27 28 27 27 27 27 28 29 29 30 31 32 33 33 34 34 34 34 34 35 35 36
26 26 28 27 28 29 29 29 28 29 28 27 27 27 27 27 27 28 28 28 28 28 28 29 30 30 30 30 29 30 30 31 31 32 33 34 34 34 34 34 34 34 35 35
29 28 29 29 30 30 30 29 28 28 28 28 28 28 28 28 28 29 29 29 29 30 30 30 31 31 31 31 31 31 31 31 31 31 32 32 32 32 33 33 33 33 33 35
31 31 31 30 30 31 31 30 30 29 28 29 30 30 30 30 30 30 30 30 30 31 31 31 31 31 32 32 32 31 31 31 31 30 30 30 30 30 30 31 31 32 32 32
32 31 31 31 31 31 31 31 31 31 31 31 31 31 32 32 32 32 32 32 32 32 32 32 32 32 32 33 33 32 32 32 31 30 30 30 30 30 29 29 30 30 30 30
31 31 31 32 32 32 33 33 33 33 33 33 32 32 33 32 32 32 33 33 33 33 33 33 33 33 33 33 33 33 33 32 31 30 30 29 30 30 29 29 29 29 29 29
31 32 32 32 33 33 33 34 34 33 33 33 33 33 33 33 32 33 33 34 34 34 35 35 35 35 35 34 33 33 32 31 31 31 30 30 30 29 29 29 29 29 29 30
32 33 33 33 34 34 34 34 34 34 34 34 34 34 34 33 33 33 34 34 35 35 35 35 35 35 35 34 33 32 31 31 31 31 31 30 30 30 29 29 29 30 30 30
32 33 34 35 35 35 35 34 34 34 34 34 34 35 35 34 34 34 34 34 35 35 35 35 35 34 35 34 33 31 31 30 30 30 30 30 30 30 30 30 30 30 30 30
33 33 34 35 35 35 34 34 34 33 33 34 34 34 34 34 34 34 34 34 34 34 35 34 34 34 33 33 31 30 29 29 29 29 28 28 28 29 29 29 29 29 29 29
31 32 32 33 33 33 33 33 33 33 33 33 34 34 34 34 34 34 34 34 34 34 34 34 34 33 32 31 30 29 29 28 28 29 29 28 28 28 27 27 27 27 27 27
31 32 32 32 32 32 32 32 32 32 32 33 34 34 34 34 34 34 34 34 34 34 34 34 34 33 32 31 30 30 29 29 28 28 28 27 27 26 26 25 25 25 25 25
32 32 32 32 32 32 32 32 32 32 32 32 32 33 33 33 33 34 34 33 33 33 33 33 32 32 31 31 30 30 29 28 28 28 27 27 26 26 25 25 24 24 24 24
31 32 32 32 32 32 32 32 32 32 33 33 32 32 31 31 32 32 32 33 33 32 32 32 32 31 31 30 29 29 28 28 27 27 27 26 26 25 25 24 24 23 22 22
31 32 33 33 33 32 32 32 31 31 31 32 32 32 31 31 31 31 31 31 32 31 31 31 31 30 30 29 28 28 27 27 27 26 26 26 26 25 25 24 23 22 22 21
31 32 33 33 33 33 33 32 32 31 31 31 31 31 31 30 30 31 30 30 30 30 30 30 30 30 29 28 28 27 26 26 25 26 25 25 25 24 24 23 22 22 21 21
31 32 32 32 32 31 31 31 30 30 30 30 29 29 29 29 29 29 28 28 28 28 29 29 29 28 28 27 26 25 24 24 24 23 23 23 23 23 22 22 22 21 21 21
31 32 31 31 31 30 30 30 29 29 28 28 28 28 28 28 27 27 26 26 26 26 27 27 26 26 26 25 25 24 23 23 23 23 22 22 22 22 21 21 21 21 21 21
31 30 30 29 29 29 29 29 29 28 28 28 27 27 26 26 26 26 25 25 25 26 26 25 25 25 24 24 23 23 23 22 22 22 22 21 21 21 21 21 21 21 21 21
Wind_Direction
275 276 276 278 278 278 279 282 284 286 288 290 289 287 286 285 284 282 282 283 283 280 275 270 269 266 263 261 258 258 259 260 263 264 264 265 265 265 266 268 268 267 265 263
274 275 274 276 277 278 280 281 282 283 286 287 286 285 283 283 282 284 283 282 281 280 277 275 274 270 267 263 260 259 259 260 263 265 266 266 266 267 267 267 267 267 265 265
275 275 275 275 278 279 281 281 281 283 286 285 283 283 283 284 285 285 285 284 282 282 280 278 277 272 270 266 263 262 261 261 264 267 267 267 268 268 268 268 267 266 266 266
278 277 276 279 280 280 281 279 281 283 285 285 285 285 286 287 288 284 283 284 285 285 282 279 278 277 272 269 266 265 265 266 267 268 269 268 267 267 266 267 266 266 267 267
277 275 275 277 279 281 283 283 282 283 284 283 285 285 286 287 287 286 282 283 286 285 284 281 281 281 277 274 272 271 271 269 269 269 270 270 269 266 266 268 268 267 267 267
276 275 276 278 280 282 286 287 286 286 283 281 282 283 285 286 286 285 283 282 282 283 285 283 283 281 280 277 275 274 273 271 271 271 272 273 271 268 268 270 270 269 269 268
274 275 276 278 281 285 287 290 289 288 285 281 280 281 282 283 286 285 283 281 282 282 284 284 286 283 281 280 278 277 275 273 273 274 274 274 273 272 272 272 272 271 270 269
274 276 278 278 280 283 287 289 290 289 286 282 281 281 282 283 284 285 284 282 283 283 282 284 286 286 284 282 281 282 279 276 277 276 275 274 274 274 274 274 274 273 272 271
275 278 278 278 280 283 285 287 289 288 286 282 280 281 284 285 285 285 284 282 282 284 284 286 289 290 289 286 284 283 281 281 282 281 279 279 277 277 276 277 277 274 272 273
275 277 277 278 280 282 284 285 286 285 284 281 280 281 284 286 285 285 285 283 282 283 285 286 288 289 290 289 290 288 285 283 282 283 283 282 280 279 278 279 279 276 273 273
272 275 276 277 279 282 283 284 284 284 283 281 279 279 282 285 287 285 285 285 283 283 283 285 287 287 289 290 290 289 287 286 285 284 284 283 281 280 279 279 279 279 276 274
273 274 276 276 277 279 281 282 282 282 282 282 281 279 281 284 285 286 285 285 284 284 284 285 287 288 287 288 289 289 288 288 286 285 284 282 280 280 280 280 280 281 280 278
273 274 276 277 278 279 280 280 281 281 281 281 281 280 281 281 283 283 283 283 284 284 284 285 286 287 288 288 288 289 289 289 287 285 284 283 280 279 280 280 282 282 279 277
272 274 275 277 278 278 278 279 279 280 280 280 281 281 280 280 281 282 282 282 282 283 284 285 286 287 288 288 288 288 288 287 286 285 284 283 281 279 279 280 281 280 279 276
272 273 275 276 277 277 277 278 278 279 279 279 280 280 279 279 280 282 282 282 282 283 284 285 286 286 287 288 288 287 287 286 285 285 284 283 281 280 279 280 279 279 278 275
272 273 274 276 277 277 278 278 278 278 278 278 278 278 278 278 280 282 282 282 282 283 284 285 286 286 286 287 288 286 286 285 284 283 283 283 281 279 278 278 279 278 278 276
274 275 275 275 277 278 278 278 278 278 277 278 278 279 279 279 280 282 282 282 282 283 284 285 286 287 287 287 286 286 285 284 283 283 282 281 281 280 279 278 277 277 277 276
274 276 276 276 278 279 278 278 278 278 277 279 280 281 281 280 280 281 283 283 283 283 284 285 285 286 287 286 285 284 283 282 281 282 282 282 281 280 278 278 276 276 276 275
275 277 279 280 281 281 280 279 279 279 278 278 280 281 281 281 280 281 282 283 283 283 284 284 284 285 285 284 282 282 281 280 280 281 281 281 281 280 279 278 277 276 276 275
277 280 282 282 282 282 281 280 280 280 280 280 281 281 282 281 281 281 281 282 283 283 284 284 284 283 282 281 280 280 279 278 278 280 281 282 281 280 279 279 278 277 277 275
279 280 281 282 283 283 282 280 280 280 281 282 283 283 283 282 282 282 281 282 282 283 283 283 283 282 280 280 279 277 276 276 277 279 279 280 279 278 279 279 279 278 277 277
278 279 280 281 283 283 283 282 281 282 282 282 283 284 285 284 283 282 282 282 282 283 283 282 282 281 281 280 278 277 276 275 276 277 278 278 278 278 278 279 279 278 277 277
277 279 280 282 282 282 283 283 283 283 283 283 283 284 284 284 284 284 283 283 283 282 282 283 283 283 282 280 278 277 276 276 275 275 276 276 277 277 277 277 277 276 276 276
279 281 282 282 282 282 282 283 283 283 283 284 284 284 284 284 284 284 284 284 283 282 282 282 283 283 282 280 279 278 277 276 275 275 275 275 275 274 274 273 273 273 273 274
281 281 283 283 284 283 282 282 283 283 283 284 285 285 285 285 285 285 284 283 283 282 282 282 282 281 280 279 278 277 276 275 275 275 276 276 274 272 271 270 270 271 272 274
284 283 284 284 284 284 283 282 283 283 284 284 285 285 285 285 285 285 285 284 284 283 283 282 280 279 279 278 277 276 276 275 275 275 275 275 273 271 269 268 269 269 271 273
287 286 285 285 284 284 283 282 282 283 284 284 285 285 284 284 284 285 285 286 286 284 282 280 278 278 278 278 277 275 274 274 275 275 275 274 273 270 269 267 268 269 270 272
Height
5622 5622 5620 5620 5620 5619 5617 5616 5615 5614 5613 5612 5609 5607 5605 5603 5601 5599 5598 5597 5595 5594 5593 5593 5593 5593 5594 5595 5597 5598 5599 5601 5602 5602 5602 5602 5602 5603 5603 5603 5603 5604 5605 5606
5616 5615 5613 5613 5613 5611 5610 5610 5608 5607 5607 5606 5603 5600 5598 5596 5594 5593 5591 5590 5588 5587 5585 5585 5585 5585 5585 5586 5587 5588 5589 5590 5590 5590 5590 5590 5590 5591 5591 5592 5592 5592 5593 5594
5608 5607 5606 5606 5607 5605 5604 5603 5601 5600 5601 5598 5596 5593 5591 5590 5588 5586 5584 5583 5581 5580 5579 5578 5577 5577 5577 5577 5577 5578 5579 5579 5580 5580 5579 5579 5580 5580 5580 5580 5581 5581 5581 5582
5600 5600 5599 5603 5600 5598 5597 5596 5595 5593 5592 5591 5589 5587 5585 5584 5582 5580 5578 5577 5576 5574 5573 5572 5571 5570 5569 5569 5569 5569 5570 5570 5570 5570 5570 5569 5569 5569 5569 5569 5569 5570 5570 5571
5593 5592 5592 5595 5593 5591 5590 5590 5588 5586 5585 5584 5582 5581 5579 5577 5575 5573 5572 5571 5570 5569 5567 5566 5564 5563 5562 5561 5561 5561 5561 5561 5561 5560 5560 5559 5558 5558 5558 5558 5559 5559 5559 5560
5586 5585 5586 5589 5587 5585 5585 5584 5582 5579 5578 5576 5575 5575 5574 5571 5569 5567 5566 5565 5564 5563 5561 5560 5559 5557 5555 5555 5554 5553 5553 5552 5552 5551 5550 5549 5549 5548 5548 5548 5548 5548 5548 5548
5580 5578 5579 5581 5580 5578 5578 5578 5575 5572 5570 5569 5568 5568 5567 5565 5563 5561 5560 5559 5558 5557 5555 5554 5552 5551 5549 5548 5547 5545 5545 5544 5543 5542 5541 5540 5539 5539 5538 5538 5538 5538 5538 5538
5573 5572 5575 5574 5572 5572 5571 5569 5566 5564 5563 5562 5561 5560 5559 5558 5556 5555 5554 5553 5551 5550 5549 5548 5546 5544 5542 5541 5539 5538 5537 5536 5534 5533 5532 5531 5531 5530 5529 5528 5528 5527 5527 5528
5567 5569 5567 5566 5565 5563 5562 5561 5559 5557 5556 5555 5554 5553 5552 5551 5550 5548 5547 5546 5544 5543 5542 5540 5538 5537 5535 5534 5532 5530 5529 5528 5526 5524 5523 5522 5522 5521 5520 5519 5517 5517 5517 5517
5559 5560 5559 5558 5556 5556 5555 5553 5551 5550 5549 5548 5547 5546 5545 5544 5542 5541 5539 5538 5537 5536 5534 5533 5531 5529 5528 5526 5524 5522 5521 5519 5518 5516 5514 5513 5512 5511 5510 5509 5508 5507 5506 5506
5551 5552 5551 5550 5549 5548 5546 5545 5544 5543 5542 5540 5539 5539 5538 5536 5535 5533 5532 5530 5529 5528 5526 5525 5523 5521 5519 5517 5516 5514 5512 5510 5509 5507 5505 5503 5502 5501 5500 5499 5498 5497 5496 5496
5543 5543 5542 5542 5541 5539 5538 5537 5536 5535 5534 5533 5532 5531 5530 5528 5527 5525 5524 5522 5521 5519 5518 5516 5515 5513 5511 5509 5507 5505 5503 5501 5499 5498 5496 5494 5493 5492 5491 5490 5489 5488 5486 5486
5534 5533 5533 5533 5532 5531 5530 5529 5527 5526 5525 5524 5523 5522 5521 5520 5518 5517 5515 5514 5512 5511 5510 5508 5506 5504 5502 5500 5498 5496 5494 5492 5490 5489 5487 5486 5485 5484 5483 5482 5481 5479 5479 5478
5525 5525 5524 5524 5523 5522 5521 5519 5518 5517 5516 5515 5514 5513 5511 5510 5509 5508 5506 5505 5503 5502 5501 5499 5497 5495 5493 5491 5489 5487 5485 5483 5482 5480 5479 5477 5476 5476 5475 5474 5474 5472 5471 5470
5516 5516 5515 5515 5514 5513 5511 5510 5509 5508 5507 5505 5504 5503 5502 5501 5500 5499 5497 5495 5494 5492 5491 5490 5488 5486 5484 5481 5479 5477 5475 5474 5472 5471 5470 5469 5468 5467 5466 5466 5465 5464 5463 5462
5507 5506 5506 5505 5504 5503 5502 5501 5500 5498 5497 5496 5495 5494 5493 5492 5491 5489 5488 5486 5484 5483 5481 5480 5478 5476 5474 5472 5470 5468 5466 5464 5463 5462 5460 5459 5458 5458 5457 5457 5456 5455 5454 5453
5497 5497 5497 5496 5495 5493 5492 5491 5490 5488 5487 5486 5485 5484 5483 5482 5481 5480 5478 5476 5474 5473 5471 5470 5468 5466 5464 5462 5460 5459 5457 5455 5454 5453 5451 5450 5450 5449 5448 5447 5447 5446 5445 5444
5488 5487 5487 5486 5484 5483 5483 5481 5480 5479 5477 5476 5475 5474 5473 5472 5471 5469 5468 5466 5465 5463 5461 5459 5457 5456 5454 5452 5450 5449 5448 5447 5446 5444 5443 5442 5441 5440 5439 5438 5437 5437 5436 5436
5478 5478 5477 5476 5474 5473 5472 5471 5470 5469 5467 5466 5465 5464 5462 5461 5460 5459 5457 5456 5454 5453 5451 5449 5447 5446 5444 5442 5441 5440 5439 5438 5437 5436 5435 5434 5432 5431 5430 5430 5429 5428 5428 5427
5469 5468 5467 5466 5465 5463 5462 5461 5460 5459 5457 5456 5455 5453 5452 5450 5449 5448 5447 5446 5444 5442 5441 5439 5438 5436 5434 5433 5432 5431 5430 5429 5428 5427 5427 5426 5425 5423 5422 5422 5421 5420 5420 5419
5460 5459 5458 5456 5455 5454 5453 5451 5450 5449 5447 5446 5444 5443 5442 5440 5439 5438 5437 5436 5434 5432 5431 5429 5428 5426 5425 5423 5423 5422 5421 5420 5420 5419 5418 5417 5416 5416 5415 5414 5413 5413 5412 5412
5450 5449 5448 5447 5445 5444 5443 5441 5440 5439 5437 5436 5434 5433 5431 5430 5429 5427 5426 5425 5424 5422 5421 5420 5418 5417 5415 5414 5413 5412 5412 5411 5411 5410 5410 5409 5408 5407 5407 5406 5406 5405 5405 5405
5440 5439 5437 5436 5435 5434 5432 5431 5430 5428 5427 5426 5424 5423 5422 5420 5419 5418 5417 5415 5414 5413 5411 5410 5409 5407 5406 5405 5404 5403 5403 5402 5402 5401 5401 5400 5400 5399 5399 5399 5398 5398 5398 5398
5430 5428 5427 5426 5424 5423 5422 5421 5420 5418 5417 5416 5414 5413 5412 5411 5409 5408 5406 5405 5404 5403 5402 5400 5399 5398 5397 5396 5396 5395 5394 5394 5393 5393 5392 5392 5391 5391 5391 5391 5391 5391 5391 5391
5420 5419 5417 5415 5414 5413 5411 5410 5409 5408 5407 5406 5405 5403 5402 5401 5400 5398 5397 5395 5394 5393 5392 5391 5390 5389 5389 5388 5387 5387 5386 5385 5385 5385 5384 5384 5384 5383 5383 5383 5384 5384 5384 5384
5410 5409 5407 5406 5404 5403 5401 5400 5399 5398 5397 5396 5395 5394 5393 5391 5390 5389 5388 5386 5385 5384 5383 5382 5381 5381 5380 5380 5379 5379 5378 5378 5377 5377 5377 5376 5376 5376 5376 5376 5376 5377 5377 5377
5401 5399 5397 5396 5394 5393 5392 5390 5390 5389 5388 5387 5386 5385 5384 5382 5381 5380 5379 5378 5377 5376 5375 5374 5373 5373 5372 5372 5371 5371 5370 5370 5370 5370 5369 5369 5369 5369 5369 5369 5369 5370 5370 5370